Portada
METAR-TAF:

METAR-TAF

Aeroports :

Waynesville Regional Airport at Forney Field

Fort Leonard Wood, Missouri, Estats Units d'Amèrica

latitud: 37-44N, longitud: 092-08W, altitud: 353 m

Observació

L'informe es va fer fa 27 minuts, a les 06:55 UTC
Vent calma
Temperatura 23°C
Humitat 83%
Pressió 1013 hPa
Visibilitat: 16.1 km
Cel clar

METAR: KTBN 170655Z AUTO 00000KT 10SM CLR 23/20 A2992 RMK AO2 SLP122 T02270202 $

Hora: 02:22 (07:22 UTC)


TAF: manca

Observacions i pronòstics meteorològics de més de 4000 aeroports (METAR i TAF).

Les estacions disponibles són els punts grocs i vermells al mapa.

Posi el ratolí al punt desitjat per veure el nom de l'estació.

Feu clic per veure les observacions i els pronòstics meteorològics.

Per canviar el mapa: feu clic els botons verds amb una creu de color negre per apropar; al botó verd amb un guió per allunyar la imatge; o en les fletxes verdes per a mapes adjacents.


METAR-TAF: